Date String (YYYY-MM-DD hh:mm:ss) UTC,Instrument flags,absolute air pressure of the measurement (hPa),sample flow rate (lpm),inlet stack bypass flow (lpm),air temperature of the measurement (°C),ambient temperature measured by the external sensor (°C),aerosol sample conditioner tube jacket temperature (°C),OPC LED temperature (°C),internal box temperature (°C),relative humidity of the measurement (%),span deviation,mass concentration of particles derived from Lorenz-Mie calculation of OPC scattering (μg/m³),mass concentration of particles derived from Lorenz-Mie calculation of OPC scattering (μg/m³),mass concentration of particles derived from Lorenz-Mie calculation of OPC scattering (μg/m³)
DateTimeUTC,F1_M11,P_M11,Q1_M11,Q2_M11,T1_M11,T2_M11,T3_M11,T4_M11,T5_M11,U1_M11,ZSPAN_M11,X2_M11,X0_M11,X1_M11
2023-12-01 20:00:00,SystemResetWarning,0819.3,5.00,000.00,019.7,019.1,000.0,027.8,021.0,16.8,0001.7,0012.04,0019.28,0010.98
2023-12-01 20:01:00,SystemResetWarning,0819.2,4.98,000.00,019.7,019.1,000.0,027.8,021.1,16.7,0001.5,0012.20,0019.54,0011.12
2023-12-01 20:02:00,SystemResetWarning,0819.2,5.00,000.00,019.7,019.1,000.0,027.9,021.1,16.5,0002.1,0012.34,0019.26,0011.25
2023-12-01 20:03:00,SystemResetWarning,0819.2,5.01,000.00,019.7,019.1,000.0,027.9,021.1,16.5,0002.3,0012.55,0019.36,0011.43
2023-12-01 20:04:00,SystemResetWarning,0819.3,5.01,000.00,019.8,019.1,000.0,027.9,021.1,16.6,0002.3,0012.76,0019.79,0011.59
2023-12-01 20:05:00,SystemResetWarning,0819.2,5.00,000.00,019.8,019.1,000.0,027.9,021.1,16.3,0002.1,0013.00,0020.90,0011.77
2023-12-01 20:06:00,SystemResetWarning,0819.2,4.99,000.00,019.8,019.2,000.0,027.9,021.1,16.1,0001.5,0013.29,0021.35,0011.99
2023-12-01 20:07:00,SystemResetWarning,0819.2,4.99,000.00,019.8,019.2,000.0,027.9,021.1,16.2,0001.3,0013.52,0021.69,0012.16
2023-12-01 20:08:00,SystemResetWarning,0819.2,5.02,000.00,019.8,019.2,000.0,028.0,021.2,16.3,0001.5,0013.64,0021.94,0012.23
2023-12-01 20:09:00,SystemResetWarning,0819.2,5.01,000.00,019.8,019.2,000.0,028.0,021.2,16.6,0001.7,0013.75,0022.94,0012.30
2023-12-01 20:10:00,SystemResetWarning,0819.1,4.98,000.00,019.8,019.2,000.0,028.0,021.2,16.7,0002.0,0013.88,0023.18,0012.40
2023-12-01 20:11:00,SystemResetWarning,0819.1,5.00,000.00,019.9,019.2,000.0,028.0,021.2,16.9,0002.4,0014.03,0023.54,0012.50
2023-12-01 20:12:00,SystemResetWarning,0819.1,5.01,000.00,019.9,019.2,000.0,028.0,021.2,16.8,0002.5,0014.14,0023.69,0012.62
2023-12-01 20:13:00,SystemResetWarning,0819.1,5.01,000.00,019.9,019.3,000.0,028.0,021.3,16.2,0002.4,0014.21,0023.82,0012.71
2023-12-01 20:14:00,SystemResetWarning,0819.2,5.01,000.00,019.9,019.3,000.0,028.1,021.3,16.1,0001.9,0014.24,0024.01,0012.73
2023-12-01 20:15:00,SystemResetWarning,0819.1,4.99,000.00,019.9,019.3,000.0,028.1,021.3,16.3,0001.1,0014.20,0023.60,0012.75
2023-12-01 20:16:00,SystemResetWarning,0819.2,4.99,000.00,019.9,019.3,000.0,028.1,021.3,16.5,0000.7,0014.20,0022.74,0012.78
2023-12-01 20:17:00,SystemResetWarning,0819.1,4.99,000.00,020.0,019.3,000.0,028.1,021.3,16.5,0000.7,0014.23,0022.80,0012.80
2023-12-01 20:18:00,SystemResetWarning,0819.1,5.01,000.00,020.0,019.3,000.0,028.1,021.3,16.5,0001.2,0014.22,0022.93,0012.82
2023-12-01 20:19:00,SystemResetWarning,0819.2,5.01,000.00,020.0,019.3,000.0,028.1,021.3,16.4,0001.3,0014.24,0022.82,0012.86
2023-12-01 20:20:00,SystemResetWarning,0819.1,4.99,000.00,020.0,019.4,000.0,028.1,021.4,16.1,0001.6,0014.21,0021.81,0012.88
2023-12-01 20:21:00,SystemResetWarning,0819.1,4.99,000.00,020.0,019.4,000.0,028.2,021.4,16.2,0001.6,0014.18,0021.64,0012.90
2023-12-01 20:22:00,SystemResetWarning,0819.1,5.01,000.00,020.0,019.4,000.0,028.2,021.4,16.3,0001.6,0014.05,0021.45,0012.87
2023-12-01 20:23:00,SystemResetWarning,0819.1,5.01,000.00,020.0,019.4,000.0,028.2,021.4,16.3,0001.4,0014.03,0021.33,0012.87
2023-12-01 20:24:00,SystemResetWarning,0819.1,4.98,000.00,020.1,019.4,000.0,028.2,021.4,16.3,0001.4,0014.02,0021.26,0012.88
2023-12-01 20:25:00,SystemResetWarning,0819.1,5.00,000.00,020.1,019.4,000.0,028.2,021.5,16.6,0001.7,0014.03,0021.17,0012.90
2023-12-01 20:26:00,SystemResetWarning,0819.0,5.01,000.00,020.1,019.4,000.0,028.2,021.5,16.6,0002.3,0014.11,0021.78,0012.95
2023-12-01 20:27:00,SystemResetWarning,0819.1,5.01,000.00,020.1,019.5,000.0,028.3,021.5,16.3,0002.7,0014.09,0021.94,0012.98
2023-12-01 20:28:00,SystemResetWarning,0819.1,4.99,000.00,020.1,019.5,000.0,028.3,021.5,16.6,0003.1,0014.09,0022.16,0012.98
2023-12-01 20:29:00,SystemResetWarning,0819.0,4.99,000.00,020.2,019.5,000.0,028.3,021.5,16.9,0003.2,0014.08,0021.72,0012.98
2023-12-01 20:30:00,SystemResetWarning,0819.0,5.00,000.00,020.2,019.5,000.0,028.3,021.5,16.7,0003.2,0014.08,0021.52,0012.99
2023-12-01 20:31:00,SystemResetWarning,0819.0,5.00,000.00,020.2,019.5,000.0,028.3,021.6,17.0,0003.4,0014.11,0022.06,0012.99
2023-12-01 20:32:00,SystemResetWarning,0819.0,5.01,000.00,020.2,019.5,000.0,028.3,021.6,17.1,0003.5,0014.16,0022.35,0012.99
2023-12-01 20:33:00,SystemResetWarning,0819.0,5.01,000.00,020.2,019.5,000.0,028.4,021.6,16.7,0003.3,0014.22,0022.30,0013.03
2023-12-01 20:34:00,SystemResetWarning,0819.0,4.99,000.00,020.2,019.6,000.0,028.4,021.6,16.4,0003.2,0014.30,0022.59,0013.06
2023-12-01 20:35:00,SystemResetWarning,0818.9,4.99,000.00,020.2,019.6,000.0,028.4,021.6,16.6,0002.4,0014.35,0023.00,0013.08
2023-12-01 20:36:00,SystemResetWarning,0819.0,4.99,000.00,020.3,019.6,000.0,028.4,021.6,17.1,0002.6,0014.36,0022.99,0013.12
2023-12-01 20:37:00,SystemResetWarning,0818.9,5.00,000.00,020.3,019.6,000.0,028.4,021.6,16.7,0002.6,0014.37,0023.12,0013.13
2023-12-01 20:38:00,SystemResetWarning,0818.9,5.01,000.00,020.3,019.6,000.0,028.4,021.7,16.5,0003.0,0014.45,0024.34,0013.13
2023-12-01 20:39:00,SystemResetWarning,0818.9,5.01,000.00,020.3,019.6,000.0,028.4,021.7,16.5,0003.2,0014.47,0024.79,0013.15
2023-12-01 20:40:00,SystemResetWarning,0819.1,5.00,000.00,020.3,019.6,000.0,028.5,021.7,16.7,0002.9,0014.50,0024.69,0013.19
2023-12-01 20:41:00,SystemResetWarning,0819.0,5.00,000.00,020.3,019.7,000.0,028.5,021.7,16.5,0003.1,0014.49,0024.54,0013.22
2023-12-01 20:42:00,SystemResetWarning,0819.1,4.99,000.00,020.3,019.7,000.0,028.5,021.7,16.5,0003.0,0014.48,0024.04,0013.23
2023-12-01 20:43:00,SystemResetWarning,0819.3,4.99,000.00,020.4,019.7,000.0,028.5,021.7,16.5,0002.8,0014.52,0024.26,0013.24
2023-12-01 20:44:00,SystemResetWarning,0819.3,5.00,000.00,020.4,019.7,000.0,028.5,021.7,16.5,0002.6,0014.54,0024.42,0013.23
2023-12-01 20:45:00,SystemResetWarning,0819.3,5.01,000.00,020.4,019.7,000.0,028.5,021.7,16.6,0002.4,0014.51,0024.54,0013.22
2023-12-01 20:46:00,SystemResetWarning,0819.4,5.01,000.00,020.4,019.7,000.0,028.5,021.8,16.8,0002.9,0014.58,0024.63,0013.25
2023-12-01 20:47:00,SystemResetWarning,0819.4,4.99,000.00,020.4,019.7,000.0,028.6,021.8,16.7,0002.7,0014.64,0025.68,0013.26
2023-12-01 20:48:00,SystemResetWarning,0819.4,4.99,000.00,020.4,019.8,000.0,028.6,021.8,16.8,0002.4,0014.63,0025.14,0013.26
2023-12-01 20:49:00,SystemResetWarning,0819.4,4.99,000.00,020.4,019.8,000.0,028.6,021.8,16.5,0002.0,0014.60,0024.03,0013.27
2023-12-01 20:50:00,SystemResetWarning,0819.2,5.00,000.00,020.5,019.8,000.0,028.6,021.8,16.6,0001.5,0014.61,0023.25,0013.26
2023-12-01 20:51:00,SystemResetWarning,0819.4,5.01,000.00,020.5,019.8,000.0,028.6,021.8,16.7,0002.0,0014.62,0023.67,0013.24
2023-12-01 20:52:00,SystemResetWarning,0819.4,5.01,000.00,020.5,019.8,000.0,028.6,021.8,16.6,0002.1,0014.66,0023.74,0013.25
2023-12-01 20:53:00,SystemResetWarning,0818.8,5.00,000.00,020.5,019.8,000.0,028.6,021.8,16.7,0002.0,0014.69,0023.67,0013.26
2023-12-01 20:54:00,SystemResetWarning,0818.9,4.98,000.00,020.5,019.8,000.0,028.6,021.9,16.9,0001.8,0014.68,0023.78,0013.26
2023-12-01 20:55:00,SystemResetWarning,0818.8,5.00,000.00,020.5,019.8,000.0,028.7,021.9,16.8,0002.0,0014.69,0023.92,0013.30
2023-12-01 20:56:00,SystemResetWarning,0818.8,5.00,000.00,020.5,019.8,000.0,028.7,021.9,16.5,0002.4,0014.76,0024.88,0013.34
2023-12-01 20:57:00,SystemResetWarning,0818.8,5.01,000.00,020.5,019.8,000.0,028.7,021.9,16.6,0002.6,0014.74,0025.37,0013.35
2023-12-01 20:58:00,SystemResetWarning,0818.8,5.01,000.00,020.6,019.9,000.0,028.7,021.9,16.4,0002.5,0014.74,0024.89,0013.37
2023-12-01 20:59:00,SystemResetWarning,0818.9,4.99,000.00,020.6,019.9,000.0,028.7,021.9,16.5,0002.6,0014.77,0024.73,0013.39
